Weather History for Bartlesville, OK

Change the Weather History Date:

Tuesday, February 12, 2013

  Actual Average Record
Temperature  
Mean Temperature 35 °F -  
Max Temperature 42 °F 50 °F 91 °F (1962)
Min Temperature 28 °F 26 °F -1 °F (1980)
Degree Days  
Heating Degree Days 30    
Moisture  
Dew Point 29 °F    
Average Humidity 78    
Maximum Humidity 100    
Minimum Humidity 55    
Precipitation  
Precipitation 0.22 in - - ()
Sea Level Pressure  
Sea Level Pressure 30.07 in    
Wind  
Wind Speed 3 mph (North)    
Max Wind Speed 8 mph    
Max Gust Speed -    
Visibility 7 miles    
Events Rain , Snow    
Averages and records for this station are not official NWS values.
T = Trace of Precipitation, MM = Missing Value Source: NWS Daily Summary

Daily Weather History Graph

Daily Weather History Graph

Search for Another Location

Airport:

Trip Planner

Search our weather history database for the weather conditions in past years. The results will help you decide how hot, cold, wet, or windy it might be!

Date:

Astronomy

Feb. 12, 2013 Rise Set
Actual Time 7:15 AM CST 6:01 PM CST
Civil Twilight 6:48 AM CST 6:28 PM CST
Nautical Twilight 6:18 AM CST 6:58 PM CST
Astronomical Twilight 5:48 AM CST 7:28 PM CST
Moon 8:18 AM CST (2/12) 8:57 PM CST (2/12)
Length of Visible Light 11h 39m
Length of Day
10h 46m
Waxing Crescent, 7% of the Moon is Illuminated
Feb 12
Waxing Crescent
Feb 17
First Quarter
Feb 25
Full
Mar 4
Last Quarter
Mar 11
New

Hourly Weather History & Observations

Time (CST) Temp. Windchill Dew Point Humidity Pressure Visibility Wind Dir Wind Speed Gust Speed Precip Events Conditions
12:53 AM 28.9 °F - 26.1 °F 89% 30.16 in 10.0 mi Calm Calm - N/A   Clear
1:53 AM 30.0 °F - 28.0 °F 92% 30.14 in 10.0 mi Calm Calm - N/A   Clear
2:53 AM 28.9 °F - 26.1 °F 89% 30.13 in 10.0 mi Calm Calm - N/A   Clear
3:53 AM 33.1 °F 27.7 °F 26.1 °F 75% 30.13 in 10.0 mi North 5.8 mph - N/A   Clear
4:53 AM 34.0 °F 31.0 °F 26.1 °F 73% 30.13 in 10.0 mi Variable 3.5 mph - N/A   Mostly Cloudy
5:53 AM 34.0 °F - 27.0 °F 75% 30.14 in 10.0 mi Calm Calm - N/A   Mostly Cloudy
6:53 AM 35.1 °F - 26.1 °F 70% 30.14 in 10.0 mi Calm Calm - N/A   Overcast
7:53 AM 35.1 °F 30.1 °F 26.1 °F 70% 30.12 in 10.0 mi North 5.8 mph - N/A   Clear
8:53 AM 36.0 °F 29.6 °F 26.1 °F 67% 30.13 in 10.0 mi NNE 8.1 mph - N/A   Overcast
9:53 AM 37.9 °F - 25.0 °F 60% 30.13 in 10.0 mi Calm Calm - N/A   Overcast
10:53 AM 39.9 °F 37.8 °F 26.1 °F 58% 30.12 in 10.0 mi SSE 3.5 mph - N/A   Overcast
11:53 AM 41.0 °F 36.4 °F 26.1 °F 55% 30.11 in 10.0 mi North 6.9 mph - N/A   Overcast
12:53 PM 42.1 °F 37.1 °F 27.0 °F 55% 30.08 in 10.0 mi North 8.1 mph - N/A   Overcast
1:53 PM 42.1 °F 37.7 °F 28.0 °F 58% 30.03 in 10.0 mi North 6.9 mph - N/A   Overcast
2:53 PM 41.0 °F 36.4 °F 30.0 °F 65% 30.02 in 10.0 mi North 6.9 mph - N/A   Overcast
3:36 PM 37.4 °F 32.1 °F 33.8 °F 87% 30.02 in 6.0 mi North 6.9 mph - 0.01 in Rain Light Rain
3:53 PM 37.9 °F 34.4 °F 34.0 °F 86% 30.02 in 7.0 mi North 4.6 mph - 0.02 in Rain Light Rain
4:53 PM 37.0 °F 34.5 °F 36.0 °F 96% 30.01 in 6.0 mi Variable 3.5 mph - 0.02 in Rain Light Rain
5:00 PM 37.4 °F 32.8 °F 35.6 °F 93% 30.01 in 6.0 mi North 5.8 mph - 0.01 in   Overcast
5:18 PM 35.6 °F 29.2 °F 35.6 °F 100% 30.02 in 8.0 mi North 8.1 mph - 0.01 in   Overcast
5:53 PM 33.1 °F 27.7 °F - N/A% 30.03 in 3.0 mi Variable 5.8 mph - 0.02 in Snow Light Snow
6:06 PM 33.8 °F 30.8 °F - N/A% 30.03 in 2.0 mi NNW 3.5 mph - 0.00 in Snow Light Snow
6:34 PM 33.8 °F - - N/A% 30.04 in 3.0 mi Calm Calm - 0.01 in Snow Light Snow
6:53 PM 33.1 °F 28.7 °F - N/A% 30.05 in 4.0 mi North 4.6 mph - 0.02 in Snow Light Snow
6:59 PM 32.0 °F 27.5 °F 32.0 °F 100% 30.04 in 2.5 mi North 4.6 mph - 0.01 in Snow Light Snow
7:10 PM 32.0 °F 28.7 °F 32.0 °F 100% 30.05 in 1.5 mi North 3.5 mph - 0.01 in Snow Light Snow
7:38 PM 32.0 °F - - N/A% 30.05 in 2.5 mi Calm Calm - 0.02 in Snow Light Snow
7:48 PM 32.0 °F - - N/A% 30.05 in 4.0 mi Calm Calm - 0.02 in Snow Light Snow
7:53 PM 32.0 °F - - N/A% 30.06 in 4.0 mi Calm Calm - 0.02 in Snow Light Snow
8:53 PM 33.1 °F - - N/A% 30.06 in 5.0 mi Calm Calm - 0.02 in Snow Light Snow
9:15 PM 33.8 °F - - N/A% 30.05 in 6.0 mi Calm Calm - 0.01 in   Overcast
9:53 PM 32.0 °F - - N/A% 30.06 in 5.0 mi Calm Calm - 0.03 in   Overcast
10:06 PM 32.0 °F - - N/A% 30.06 in 4.0 mi Calm Calm - 0.01 in   Overcast
10:53 PM 33.1 °F - - N/A% 30.05 in 4.0 mi Calm Calm - 0.03 in   Haze
11:18 PM 33.8 °F - - N/A% 30.04 in 5.0 mi Calm Calm - 0.01 in   Overcast
11:53 PM 33.1 °F - - N/A% 30.04 in 5.0 mi Calm Calm - 0.04 in   Overcast